#�ϑ�����,���ϕ���,���ϕ���,�ő啗��,�ő啗����������,�ő�u�ԕ���,�ő�u�ԕ�����������
#(�N����),(m/s)   ,(16����),(m/s)   ,(16����)        ,(m/s)       ,(16����)            
2016/9/5 0:01,1.1,2,1.1,3,1.1,3
2016/9/5 0:02,1,2,1,2,1.5,3
2016/9/5 0:03,1,2,1,2,1.8,3
2016/9/5 0:04,1.1,2,1.1,2,2.4,2
2016/9/5 0:05,1.1,3,1.1,2,1.9,3
2016/9/5 0:06,1.1,3,1.1,2,2.4,3
2016/9/5 0:07,1.2,3,1.2,3,2,3
2016/9/5 0:08,1.2,3,1.2,3,1.6,4
2016/9/5 0:09,1.1,3,1.2,3,1.4,3
2016/9/5 0:10,1.1,3,1.1,3,1.4,4
2016/9/5 0:11,1.1,3,1.1,3,1.1,2
2016/9/5 0:12,1.1,3,1.1,3,2,4
2016/9/5 0:13,1.2,3,1.2,3,2.2,4
2016/9/5 0:14,1.2,3,1.2,3,2.2,3
2016/9/5 0:15,1.3,3,1.3,3,3.2,5
2016/9/5 0:16,1.3,3,1.3,3,2.7,4
2016/9/5 0:17,1.4,3,1.4,3,2.9,4
2016/9/5 0:18,1.5,3,1.5,3,2.1,4
2016/9/5 0:19,1.6,3,1.6,3,2.4,3
2016/9/5 0:20,1.6,3,1.6,3,2,3
2016/9/5 0:21,1.6,3,1.6,3,2,4
2016/9/5 0:22,1.6,3,1.7,3,2.2,3
2016/9/5 0:23,1.6,3,1.6,3,1.9,5
2016/9/5 0:24,1.6,3,1.6,3,1.4,3
2016/9/5 0:25,1.4,3,1.6,3,1.6,3
2016/9/5 0:26,1.4,3,1.4,3,1.6,3
2016/9/5 0:27,1.3,3,1.4,3,1.8,4
2016/9/5 0:28,1.3,3,1.3,3,2.2,4
2016/9/5 0:29,1.3,3,1.3,3,2.1,2
2016/9/5 0:30,1.3,3,1.3,3,2,3
2016/9/5 0:31,1.3,3,1.3,3,1.6,3
2016/9/5 0:32,1.3,3,1.3,3,1.8,2
2016/9/5 0:33,1.2,3,1.3,3,1.5,4
2016/9/5 0:34,1.3,3,1.3,3,2.7,3
2016/9/5 0:35,1.4,3,1.4,3,2.2,3
2016/9/5 0:36,1.3,3,1.4,3,1.6,4
2016/9/5 0:37,1.3,3,1.3,3,1.5,1
2016/9/5 0:38,1.3,3,1.3,3,1.6,3
2016/9/5 0:39,1.2,3,1.3,3,1.9,3
2016/9/5 0:40,1.1,2,1.2,3,1.6,2
2016/9/5 0:41,1.1,2,1.1,3,1.9,3
2016/9/5 0:42,1.1,2,1.2,3,2.5,3
2016/9/5 0:43,1.2,2,1.2,3,2.4,3
2016/9/5 0:44,1.2,2,1.2,3,2.1,1
2016/9/5 0:45,1.2,2,1.2,3,2.7,3
2016/9/5 0:46,1.3,2,1.3,3,3.2,3
2016/9/5 0:47,1.4,2,1.4,2,3,4
2016/9/5 0:48,1.5,2,1.5,2,3,3
2016/9/5 0:49,1.7,2,1.7,2,3.6,3
2016/9/5 0:50,1.8,3,1.8,2,2.9,4
2016/9/5 0:51,1.9,3,1.9,3,2.7,3
2016/9/5 0:52,2,3,2,3,3.1,3
2016/9/5 0:53,2.1,3,2.1,3,3.3,3
2016/9/5 0:54,2.1,3,2.1,3,3,3
2016/9/5 0:55,2.1,3,2.1,3,3.1,3
2016/9/5 0:56,2.2,3,2.2,3,4.3,3
2016/9/5 0:57,2.2,3,2.2,3,3.3,3
2016/9/5 0:58,2.3,3,2.3,3,2.9,4
2016/9/5 0:59,2.2,3,2.3,3,2.9,3
2016/9/5 1:00,2.2,3,2.2,3,2.6,3
2016/9/5 1:01,2.2,3,2.2,3,2.4,3
2016/9/5 1:02,2.3,3,2.3,3,4.7,4
2016/9/5 1:03,2.2,3,2.2,3,3.1,3
2016/9/5 1:04,2.2,3,2.2,3,2.7,3
2016/9/5 1:05,2.2,3,2.2,3,3.2,3
2016/9/5 1:06,2.2,3,2.2,3,3.9,3
2016/9/5 1:07,2.2,3,2.2,3,3.3,3
2016/9/5 1:08,2.1,3,2.2,3,2.4,3
2016/9/5 1:09,2.1,3,2.1,3,3.6,3
2016/9/5 1:10,2.1,3,2.2,3,3.2,3
2016/9/5 1:11,2.2,3,2.2,3,3.1,3
2016/9/5 1:12,2.1,3,2.2,3,3.1,3
2016/9/5 1:13,2.1,3,2.1,3,3.6,3
2016/9/5 1:14,2.2,3,2.2,3,3.6,3
2016/9/5 1:15,2.2,3,2.2,3,3.9,5
2016/9/5 1:16,2.2,3,2.2,3,4.3,4
2016/9/5 1:17,2.3,3,2.3,3,4.4,3
2016/9/5 1:18,2.4,3,2.4,3,3.2,2
2016/9/5 1:19,2.4,3,2.4,3,2.9,3
2016/9/5 1:20,2.4,3,2.4,3,4.2,3
2016/9/5 1:21,2.5,3,2.5,3,3.7,3
2016/9/5 1:22,2.5,3,2.5,3,3.7,3
2016/9/5 1:23,2.5,3,2.5,3,3.8,3
2016/9/5 1:24,2.5,3,2.5,3,4.2,3
2016/9/5 1:25,2.5,3,2.5,3,3.3,2
2016/9/5 1:26,2.4,3,2.5,3,2.7,3
2016/9/5 1:27,2.4,3,2.4,3,3.2,3
2016/9/5 1:28,2.4,3,2.4,3,3.9,4
2016/9/5 1:29,2.5,3,2.5,3,4.4,3
2016/9/5 1:30,2.5,3,2.5,3,3.6,3
2016/9/5 1:31,2.5,3,2.5,3,3.5,3
2016/9/5 1:32,2.5,3,2.5,3,3.9,4
2016/9/5 1:33,2.5,3,2.5,3,3.9,4
2016/9/5 1:34,2.4,3,2.5,3,3.5,3
2016/9/5 1:35,2.4,3,2.4,3,3.3,2
2016/9/5 1:36,2.4,3,2.4,3,2.7,3
2016/9/5 1:37,2.3,3,2.4,3,2,3
2016/9/5 1:38,2.2,3,2.3,3,3.7,4
2016/9/5 1:39,2.1,3,2.2,3,3,4
2016/9/5 1:40,1.9,3,2.1,3,2.2,4
2016/9/5 1:41,1.9,3,1.9,3,2.7,4
2016/9/5 1:42,1.8,3,1.9,3,2,4
2016/9/5 1:43,1.7,3,1.8,3,2.9,5
2016/9/5 1:44,1.8,4,1.8,3,4.1,4
2016/9/5 1:45,1.8,4,1.8,3,3.3,5
2016/9/5 1:46,1.8,4,1.8,3,3.5,4
2016/9/5 1:47,1.9,4,1.9,3,3.3,6
2016/9/5 1:48,1.9,4,1.9,3,3.2,4
2016/9/5 1:49,1.9,4,1.9,3,2.5,4
2016/9/5 1:50,2,4,2,4,3.9,4
2016/9/5 1:51,2,4,2,4,3.5,6
2016/9/5 1:52,2,4,2,4,2.2,6
2016/9/5 1:53,2,4,2,4,2,5
2016/9/5 1:54,2,5,2,4,3.9,5
2016/9/5 1:55,2,5,2,4,3.9,4
2016/9/5 1:56,2,5,2,4,2.9,5
2016/9/5 1:57,2,5,2,4,2.9,4
2016/9/5 1:58,1.9,5,2,4,1.9,3
2016/9/5 1:59,1.9,5,1.9,4,2,5
2016/9/5 2:00,1.7,4,1.9,4,1.6,3
2016/9/5 2:01,1.6,4,1.7,4,1.8,2
2016/9/5 2:02,1.7,4,1.7,4,2.5,4
2016/9/5 2:03,1.7,4,1.7,5,2.9,4
2016/9/5 2:04,1.6,4,1.7,5,2.1,4
2016/9/5 2:05,1.4,4,1.6,5,1.3,5
2016/9/5 2:06,1.2,3,1.4,5,1.4,3
2016/9/5 2:07,1.2,3,1.2,5,2.2,2
2016/9/5 2:08,1.2,3,1.2,5,1.5,3
2016/9/5 2:09,1.1,3,1.2,5,1.5,3
2016/9/5 2:10,1.1,3,1.1,4,1.3,2
2016/9/5 2:11,1.1,4,1.1,4,2,3
2016/9/5 2:12,1,4,1.1,4,1.1,4
2016/9/5 2:13,0.9,3,1,4,0.8,1
2016/9/5 2:14,0.9,3,0.9,4,1.9,1
2016/9/5 2:15,0.9,3,0.9,4,1.6,2
2016/9/5 2:16,0.9,3,0.9,3,1.5,1
2016/9/5 2:17,0.8,3,0.9,3,1.9,3
2016/9/5 2:18,0.9,3,0.9,3,1.8,3
2016/9/5 2:19,0.9,3,0.9,3,1.9,2
2016/9/5 2:20,1,3,1,4,2,3
2016/9/5 2:21,1,2,1,4,2.1,3
2016/9/5 2:22,1.1,2,1.1,2,3.3,4
2016/9/5 2:23,1.3,2,1.3,2,3.1,4
2016/9/5 2:24,1.4,2,1.4,2,2.4,3
2016/9/5 2:25,1.5,2,1.5,2,3,2
2016/9/5 2:26,1.5,2,1.5,2,2.4,1
2016/9/5 2:27,1.6,2,1.6,2,2.4,2
2016/9/5 2:28,1.7,2,1.7,2,2.9,2
2016/9/5 2:29,1.8,2,1.8,2,3.2,3
2016/9/5 2:30,1.8,2,1.8,2,2.5,3
2016/9/5 2:31,1.8,2,1.8,2,2.5,2
2016/9/5 2:32,1.7,2,1.8,2,2.4,3
2016/9/5 2:33,1.6,2,1.7,2,1.9,3
2016/9/5 2:34,1.6,2,1.7,2,2.2,3
2016/9/5 2:35,1.6,2,1.6,2,2.2,1
2016/9/5 2:36,1.6,2,1.6,2,3.1,3
2016/9/5 2:37,1.6,2,1.6,2,2.6,2
2016/9/5 2:38,1.6,2,1.6,2,2.9,3
2016/9/5 2:39,1.7,2,1.7,2,3.7,4
2016/9/5 2:40,1.7,2,1.7,2,3.1,2
2016/9/5 2:41,1.7,2,1.7,2,2.7,3
2016/9/5 2:42,1.8,2,1.8,2,2.5,3
2016/9/5 2:43,1.8,2,1.8,2,2,3
2016/9/5 2:44,1.8,2,1.8,2,1.9,16
2016/9/5 2:45,1.8,2,1.8,2,1.6,2
2016/9/5 2:46,1.7,2,1.8,2,2.7,3
2016/9/5 2:47,1.7,2,1.7,2,2.2,2
2016/9/5 2:48,1.7,2,1.7,2,2.5,3
2016/9/5 2:49,1.6,2,1.7,2,2.2,2
2016/9/5 2:50,1.6,2,1.6,2,2.4,2
2016/9/5 2:51,1.5,2,1.6,2,2,2
2016/9/5 2:52,1.4,2,1.5,2,2.2,3
2016/9/5 2:53,1.4,2,1.4,2,2,1
2016/9/5 2:54,1.4,2,1.4,2,2.4,2
2016/9/5 2:55,1.5,2,1.5,2,3.2,2
2016/9/5 2:56,1.5,2,1.5,2,2,4
2016/9/5 2:57,1.6,2,1.6,2,3.2,2
2016/9/5 2:58,1.6,2,1.6,2,2.7,3
2016/9/5 2:59,1.7,2,1.7,2,3.7,2
2016/9/5 3:00,1.7,2,1.7,2,2.6,2
2016/9/5 3:01,1.7,2,1.7,2,2.4,1
2016/9/5 3:02,1.7,2,1.7,2,2.1,1
2016/9/5 3:03,1.7,2,1.7,2,2.1,2
2016/9/5 3:04,1.7,2,1.7,2,2.4,4
2016/9/5 3:05,1.6,2,1.7,2,2.1,1
2016/9/5 3:06,1.6,2,1.6,2,1.5,1
2016/9/5 3:07,1.5,2,1.6,2,1.5,2
2016/9/5 3:08,1.5,2,1.5,2,2.6,2
2016/9/5 3:09,1.4,2,1.5,2,2.9,2
2016/9/5 3:10,1.4,2,1.4,2,2.6,2
2016/9/5 3:11,1.4,2,1.4,2,1.8,1
2016/9/5 3:12,1.3,2,1.3,2,2,16
2016/9/5 3:13,1.3,2,1.4,2,2.7,3
2016/9/5 3:14,1.3,2,1.3,2,2.2,2
2016/9/5 3:15,1.3,2,1.3,2,1.5,1
2016/9/5 3:16,1.4,2,1.4,2,2.4,3
2016/9/5 3:17,1.4,2,1.4,2,1.6,4
2016/9/5 3:18,1.3,2,1.4,2,2.6,3
2016/9/5 3:19,1.3,2,1.3,2,2,4
2016/9/5 3:20,1.3,2,1.3,2,1.8,3
2016/9/5 3:21,1.4,2,1.4,2,3.7,3
2016/9/5 3:22,1.6,2,1.6,2,4.2,2
2016/9/5 3:23,1.7,2,1.7,2,3.8,2
2016/9/5 3:24,1.7,3,1.7,2,2.6,2
2016/9/5 3:25,1.8,3,1.8,3,2.7,1
2016/9/5 3:26,2,3,2,3,3.8,3
2016/9/5 3:27,2.1,3,2.1,3,3.3,2
2016/9/5 3:28,2.3,3,2.3,3,3.7,4
2016/9/5 3:29,2.3,3,2.3,3,2.4,4
2016/9/5 3:30,2.4,3,2.4,3,3.2,4
2016/9/5 3:31,2.3,3,2.4,3,2.6,5
2016/9/5 3:32,2.2,3,2.3,3,2.6,3
2016/9/5 3:33,2.1,3,2.1,3,3.3,3
2016/9/5 3:34,2.1,3,2.1,3,2.6,3
2016/9/5 3:35,2.2,3,2.2,3,3.1,3
2016/9/5 3:36,2.1,3,2.2,3,2.7,4
2016/9/5 3:37,2.1,3,2.1,3,3.6,3
2016/9/5 3:38,2.1,3,2.1,3,4.5,3
2016/9/5 3:39,2.3,3,2.3,3,4.2,3
2016/9/5 3:40,2.3,3,2.3,3,3.6,4
2016/9/5 3:41,2.4,3,2.4,3,3.1,4
2016/9/5 3:42,2.4,3,2.4,3,2.6,2
2016/9/5 3:43,2.4,3,2.4,3,2.7,3
2016/9/5 3:44,2.3,3,2.4,3,2.9,4
2016/9/5 3:45,2.3,3,2.3,3,3.8,2
2016/9/5 3:46,2.3,3,2.4,3,3.2,3
2016/9/5 3:47,2.3,3,2.4,3,3,3
2016/9/5 3:48,2.2,3,2.3,3,2.9,3
2016/9/5 3:49,2,3,2.1,3,1.6,4
2016/9/5 3:50,1.8,3,1.9,3,2,2
2016/9/5 3:51,1.8,3,1.8,3,2.5,4
2016/9/5 3:52,1.8,3,1.9,3,3.5,4
2016/9/5 3:53,1.8,3,1.9,3,3,5
2016/9/5 3:54,1.9,3,1.9,3,3.8,3
2016/9/5 3:55,1.9,3,1.9,3,2.9,3
2016/9/5 3:56,1.8,3,1.9,3,3,2
2016/9/5 3:57,1.9,2,1.9,3,3.6,3
2016/9/5 3:58,2,2,2,3,3.6,3
2016/9/5 3:59,2.1,3,2.1,3,3.8,3
2016/9/5 4:00,2.1,3,2.1,3,3.2,3
2016/9/5 4:01,2.1,3,2.2,3,2.7,3
2016/9/5 4:02,2.2,3,2.2,3,4.3,2
2016/9/5 4:03,2.3,3,2.3,3,4.2,2
2016/9/5 4:04,2.2,3,2.3,3,2.5,3
2016/9/5 4:05,2.2,3,2.2,3,2.6,3
2016/9/5 4:06,2.3,3,2.3,3,3.7,3
2016/9/5 4:07,2.2,3,2.3,3,2.7,3
2016/9/5 4:08,2.2,3,2.2,3,3.6,3
2016/9/5 4:09,2.2,3,2.2,3,4.4,3
2016/9/5 4:10,2.3,3,2.3,3,4.1,4
2016/9/5 4:11,2.4,3,2.4,3,3.6,4
2016/9/5 4:12,2.3,3,2.4,3,3.2,3
2016/9/5 4:13,2.2,3,2.3,3,1.9,3
2016/9/5 4:14,2.1,3,2.1,3,2.6,4
2016/9/5 4:15,2.2,3,2.2,3,3.5,3
2016/9/5 4:16,2.2,3,2.2,3,3.2,3
2016/9/5 4:17,2.2,3,2.2,3,3.9,3
2016/9/5 4:18,2.3,3,2.3,3,4.3,4
2016/9/5 4:19,2.3,3,2.3,3,4.7,3
2016/9/5 4:20,2.3,3,2.3,3,3.9,4
2016/9/5 4:21,2.3,3,2.3,3,4.5,3
2016/9/5 4:22,2.4,3,2.4,3,4.3,3
2016/9/5 4:23,2.5,3,2.5,3,3.6,3
2016/9/5 4:24,2.6,3,2.6,3,4.7,3
2016/9/5 4:25,2.7,3,2.7,3,4.7,3
2016/9/5 4:26,2.8,3,2.8,3,4.5,4
2016/9/5 4:27,2.9,3,2.9,3,5.1,3
2016/9/5 4:28,2.9,3,2.9,3,4.4,3
2016/9/5 4:29,2.8,3,2.9,3,4.2,4
2016/9/5 4:30,2.8,3,2.8,3,3.5,3
2016/9/5 4:31,2.6,3,2.8,3,3.8,2
2016/9/5 4:32,2.6,3,2.6,3,3.8,3
2016/9/5 4:33,2.7,3,2.7,3,3.5,4
2016/9/5 4:34,2.7,3,2.7,3,3.5,3
2016/9/5 4:35,2.7,3,2.7,3,3.6,2
2016/9/5 4:36,2.7,3,2.7,3,3.7,3
2016/9/5 4:37,2.5,3,2.7,3,3.6,3
2016/9/5 4:38,2.4,3,2.5,3,3,3
2016/9/5 4:39,2.4,3,2.4,3,4.7,3
2016/9/5 4:40,2.4,3,2.4,3,3.6,5
2016/9/5 4:41,2.5,3,2.5,3,4.8,2
2016/9/5 4:42,2.5,3,2.5,3,3.7,3
2016/9/5 4:43,2.5,3,2.5,3,3.6,4
2016/9/5 4:44,2.4,3,2.5,3,3.7,3
2016/9/5 4:45,2.3,3,2.4,3,3.2,3
2016/9/5 4:46,2.3,3,2.4,3,3.5,3
2016/9/5 4:47,2.4,3,2.4,3,4.3,3
2016/9/5 4:48,2.4,3,2.4,3,4.1,2
2016/9/5 4:49,2.5,3,2.5,3,5.1,3
2016/9/5 4:50,2.6,3,2.6,3,4.3,4
2016/9/5 4:51,2.5,3,2.6,3,3.9,3
2016/9/5 4:52,2.5,3,2.5,3,2.9,3
2016/9/5 4:53,2.4,3,2.5,3,2.9,3
2016/9/5 4:54,2.4,3,2.4,3,2.7,4
2016/9/5 4:55,2.4,3,2.4,3,3.1,4
2016/9/5 4:56,2.4,3,2.4,3,3.7,4
2016/9/5 4:57,2.3,3,2.4,3,3,3
2016/9/5 4:58,2.3,3,2.3,3,3.1,3
2016/9/5 4:59,2.2,4,2.3,3,3.7,3
2016/9/5 5:00,2,4,2.2,3,2.7,6
2016/9/5 5:01,1.9,4,2,3,2.2,3
2016/9/5 5:02,1.8,4,1.9,3,2.2,3
2016/9/5 5:03,1.9,4,1.9,3,3.1,4
2016/9/5 5:04,1.9,4,1.9,3,3.5,4
2016/9/5 5:05,2,4,2,3,4.2,5
2016/9/5 5:06,1.9,4,2,3,2.9,4
2016/9/5 5:07,1.9,4,1.9,3,2.4,5
2016/9/5 5:08,1.8,4,1.9,3,2.4,4
2016/9/5 5:09,1.7,4,1.8,4,3.1,6
2016/9/5 5:10,1.9,4,1.9,4,4.3,4
2016/9/5 5:11,2.1,4,2.1,4,4.2,4
2016/9/5 5:12,2.3,4,2.3,4,4.4,6
2016/9/5 5:13,2.4,5,2.4,5,3.8,6
2016/9/5 5:14,2.4,4,2.4,5,3.8,5
2016/9/5 5:15,2.4,4,2.4,5,3.8,3
2016/9/5 5:16,2.5,4,2.5,4,3.6,4
2016/9/5 5:17,2.5,4,2.5,4,3,4
2016/9/5 5:18,2.5,4,2.5,4,2.7,4
2016/9/5 5:19,2.6,4,2.6,4,3.5,3
2016/9/5 5:20,2.5,4,2.6,4,4.3,4
2016/9/5 5:21,2.4,4,2.5,4,4.3,5
2016/9/5 5:22,2.4,4,2.4,4,6.3,4
2016/9/5 5:23,2.4,4,2.4,4,4.8,5
2016/9/5 5:24,2.4,4,2.4,4,3.5,5
2016/9/5 5:25,2.4,4,2.4,4,3.2,5
2016/9/5 5:26,2.4,4,2.4,4,3.3,3
2016/9/5 5:27,2.5,4,2.5,4,3.3,3
2016/9/5 5:28,2.6,4,2.6,4,3.6,4
2016/9/5 5:29,2.7,4,2.7,4,4.3,3
2016/9/5 5:30,2.6,4,2.7,4,3.2,1
2016/9/5 5:31,2.6,4,2.7,4,2.2,4
2016/9/5 5:32,2.4,4,2.6,4,3.2,4
2016/9/5 5:33,2.4,3,2.5,4,3.8,3
2016/9/5 5:34,2.4,3,2.4,4,4.4,3
2016/9/5 5:35,2.4,3,2.4,4,3.8,4
2016/9/5 5:36,2.5,3,2.5,4,4.1,3
2016/9/5 5:37,2.5,3,2.5,4,4.2,4
2016/9/5 5:38,2.5,4,2.5,4,3.3,2
2016/9/5 5:39,2.3,4,2.5,4,3.3,3
2016/9/5 5:40,2.4,4,2.4,4,3.7,3
2016/9/5 5:41,2.5,4,2.5,4,3,3
2016/9/5 5:42,2.4,4,2.5,4,3.2,4
2016/9/5 5:43,2.4,3,2.4,3,3.6,3
2016/9/5 5:44,2.3,3,2.4,3,3.9,4
2016/9/5 5:45,2.3,3,2.3,3,4.1,3
2016/9/5 5:46,2.2,4,2.3,3,2.6,4
2016/9/5 5:47,2.1,3,2.2,3,3,3
2016/9/5 5:48,2.1,3,2.1,4,3.6,4
2016/9/5 5:49,2.2,3,2.2,4,2.7,3
2016/9/5 5:50,2.1,3,2.1,4,3.5,5
2016/9/5 5:51,2.1,3,2.1,4,2.9,4
2016/9/5 5:52,2,3,2.1,4,2.5,1
2016/9/5 5:53,2,3,2.1,4,3.1,3
2016/9/5 5:54,2,3,2,3,3.1,3
2016/9/5 5:55,2,3,2,4,3.3,3
2016/9/5 5:56,2,3,2,4,2.9,3
2016/9/5 5:57,2,3,2,3,3.9,3
2016/9/5 5:58,2,3,2,3,4.2,3
2016/9/5 5:59,2,3,2,3,2.9,2
2016/9/5 6:00,2,2,2,3,2.6,2
2016/9/5 6:01,2,2,2,3,3.3,2
2016/9/5 6:02,2.2,2,2.2,2,4.8,3
2016/9/5 6:03,2.3,2,2.3,2,4.1,2
2016/9/5 6:04,2.4,2,2.4,2,3.7,3
2016/9/5 6:05,2.5,2,2.5,2,4.2,3
2016/9/5 6:06,2.5,2,2.5,2,3.5,3
2016/9/5 6:07,2.4,2,2.6,3,2.7,2
2016/9/5 6:08,2.3,2,2.4,3,3.3,4
2016/9/5 6:09,2.3,2,2.4,3,3.8,3
2016/9/5 6:10,2.3,2,2.3,3,3.1,4
2016/9/5 6:11,2.2,2,2.3,3,3.3,2
2016/9/5 6:12,2.2,2,2.2,3,3,2
2016/9/5 6:13,2.1,2,2.2,3,2.7,2
2016/9/5 6:14,2,2,2.1,3,2.1,3
2016/9/5 6:15,1.9,2,1.9,3,3.3,2
2016/9/5 6:16,1.8,2,1.9,3,3,3
2016/9/5 6:17,1.9,2,1.9,2,3.3,2
2016/9/5 6:18,1.8,2,1.9,2,3,3
2016/9/5 6:19,1.8,3,1.9,2,2.6,5
2016/9/5 6:20,1.8,2,1.8,2,3,3
2016/9/5 6:21,1.9,3,1.9,2,2.9,3
2016/9/5 6:22,2,3,2,2,4.3,4
2016/9/5 6:23,2,3,2,2,3.6,3
2016/9/5 6:24,2.1,3,2.1,3,3,3
2016/9/5 6:25,2.1,3,2.1,3,3,1
2016/9/5 6:26,2,3,2.1,3,2.5,2
2016/9/5 6:27,2.1,3,2.1,3,3.5,2
2016/9/5 6:28,2.1,3,2.1,3,3.1,2
2016/9/5 6:29,2.1,3,2.1,3,2.9,3
2016/9/5 6:30,2.1,3,2.2,3,2,3
2016/9/5 6:31,2.2,3,2.2,3,3.7,3
2016/9/5 6:32,2.1,3,2.2,3,3.9,2
2016/9/5 6:33,2.1,3,2.1,3,3.6,2
2016/9/5 6:34,2,3,2.1,3,3.5,3
2016/9/5 6:35,2,3,2.1,3,2.9,4
2016/9/5 6:36,2.1,3,2.1,3,2.9,3
2016/9/5 6:37,2.1,3,2.1,3,2.5,3
2016/9/5 6:38,2.1,3,2.1,3,2.9,3
2016/9/5 6:39,2,3,2.1,3,2.4,3
2016/9/5 6:40,2.1,3,2.1,3,3.7,3
2016/9/5 6:41,2,3,2.1,3,3.8,1
2016/9/5 6:42,2,3,2,3,3.8,3
2016/9/5 6:43,2,3,2,3,3,3
2016/9/5 6:44,1.9,3,1.9,3,3.3,3
2016/9/5 6:45,2,3,2,3,4.7,3
2016/9/5 6:46,2.1,3,2.1,3,3.5,3
2016/9/5 6:47,2.2,3,2.2,3,3.9,3
2016/9/5 6:48,2.3,3,2.3,3,3.5,3
2016/9/5 6:49,2.4,3,2.4,3,4.3,3
2016/9/5 6:50,2.5,3,2.5,3,3.6,4
2016/9/5 6:51,2.5,3,2.5,3,3.1,3
2016/9/5 6:52,2.5,3,2.5,3,2.7,4
2016/9/5 6:53,2.4,3,2.5,3,2.6,4
2016/9/5 6:54,2.3,3,2.4,3,3.9,3
2016/9/5 6:55,2.4,3,2.4,3,4.7,4
2016/9/5 6:56,2.4,3,2.4,3,3.8,3
2016/9/5 6:57,2.4,3,2.4,3,3.1,4
2016/9/5 6:58,2.3,3,2.4,3,3.5,3
2016/9/5 6:59,2.3,3,2.4,3,3.3,2
2016/9/5 7:00,2.2,3,2.3,3,2.5,3
2016/9/5 7:01,2.1,3,2.2,3,2.4,4
2016/9/5 7:02,2,3,2,3,3.2,3
2016/9/5 7:03,2,3,2.1,3,3.1,4
2016/9/5 7:04,2.1,3,2.1,3,3,3
2016/9/5 7:05,2,3,2.1,3,2.7,3
2016/9/5 7:06,1.9,3,2,3,2.9,2
2016/9/5 7:07,1.9,2,1.9,3,3,2
2016/9/5 7:08,1.8,2,1.9,3,3.6,2
2016/9/5 7:09,1.9,2,1.9,3,3.7,3
2016/9/5 7:10,1.9,2,1.9,3,3.5,3
2016/9/5 7:11,2,2,2,3,3.1,3
2016/9/5 7:12,2.1,2,2.1,3,4.7,3
2016/9/5 7:13,2.2,2,2.2,2,4.5,3
2016/9/5 7:14,2.2,2,2.2,2,3.2,3
2016/9/5 7:15,2.3,2,2.3,2,3.8,3
2016/9/5 7:16,2.3,2,2.3,2,3.6,3
2016/9/5 7:17,2.4,3,2.4,2,3.1,3
2016/9/5 7:18,2.4,3,2.4,2,2.9,3
2016/9/5 7:19,2.3,3,2.4,2,2.5,3
2016/9/5 7:20,2.4,3,2.4,2,3.7,3
2016/9/5 7:21,2.5,3,2.5,3,4.4,3
2016/9/5 7:22,2.5,3,2.6,3,3.5,3
2016/9/5 7:23,2.4,3,2.4,3,2.7,2
2016/9/5 7:24,2.4,3,2.4,3,3.8,2
2016/9/5 7:25,2.4,3,2.5,3,3.6,2
2016/9/5 7:26,2.4,3,2.5,3,4.2,3
2016/9/5 7:27,2.5,3,2.5,3,4.1,3
2016/9/5 7:28,2.5,3,2.5,3,3.2,3
2016/9/5 7:29,2.4,3,2.5,3,3.1,3
2016/9/5 7:30,2.4,3,2.5,3,3.3,3
2016/9/5 7:31,2.4,3,2.4,3,4.3,3
2016/9/5 7:32,2.4,3,2.4,3,4.3,3
2016/9/5 7:33,2.5,3,2.5,3,3.1,3
2016/9/5 7:34,2.5,3,2.5,3,3.1,3
2016/9/5 7:35,2.5,3,2.5,3,3.8,2
2016/9/5 7:36,2.5,3,2.5,3,3.3,2
2016/9/5 7:37,2.5,3,2.5,3,3.9,3
2016/9/5 7:38,2.3,3,2.4,3,2.2,2
2016/9/5 7:39,2.4,3,2.4,3,3.8,1
2016/9/5 7:40,2.4,3,2.4,3,4.1,1
2016/9/5 7:41,2.3,3,2.4,3,3,3
2016/9/5 7:42,2.2,3,2.2,3,3.5,2
2016/9/5 7:43,2.2,3,2.2,3,3.3,3
2016/9/5 7:44,2.1,2,2.2,3,2.6,3
2016/9/5 7:45,2,2,2.1,3,2.9,2
2016/9/5 7:46,2,2,2,3,3,4
2016/9/5 7:47,1.9,3,1.9,3,2.6,3
2016/9/5 7:48,2,2,2,3,4.3,3
2016/9/5 7:49,2.1,2,2.1,3,4.5,3
2016/9/5 7:50,2.1,2,2.1,3,3.2,2
2016/9/5 7:51,2.1,2,2.1,3,3.3,3
2016/9/5 7:52,2.2,3,2.2,3,4.2,3
2016/9/5 7:53,2.2,3,2.2,3,3.1,3
2016/9/5 7:54,2.3,3,2.3,3,3.8,3
2016/9/5 7:55,2.4,3,2.4,3,3.8,3
2016/9/5 7:56,2.4,3,2.4,3,3.5,3
2016/9/5 7:57,2.5,3,2.5,3,3.5,4
2016/9/5 7:58,2.5,3,2.6,3,3.3,3
2016/9/5 7:59,2.4,3,2.5,3,2.5,3
2016/9/5 8:00,2.5,3,2.5,3,3.5,4
2016/9/5 8:01,2.4,3,2.5,3,3,4
2016/9/5 8:02,2.3,3,2.4,3,3,4
2016/9/5 8:03,2.3,3,2.3,3,2.6,4
2016/9/5 8:04,2.2,4,2.3,3,2.5,5
2016/9/5 8:05,2.1,4,2.2,3,2.9,4
2016/9/5 8:06,2.1,4,2.1,3,2.6,4
2016/9/5 8:07,2,4,2.1,3,2.4,3
2016/9/5 8:08,1.9,4,2,3,2.9,3
2016/9/5 8:09,2,4,2,3,3.5,4
2016/9/5 8:10,2,4,2,3,3.6,5
2016/9/5 8:11,2,4,2,3,3,3
2016/9/5 8:12,2,3,2,3,2.5,2
2016/9/5 8:13,2,3,2,3,2.2,3
2016/9/5 8:14,1.9,3,2,4,2,4
2016/9/5 8:15,1.8,3,1.9,4,2,3
2016/9/5 8:16,1.9,3,1.9,4,2.7,4
2016/9/5 8:17,1.9,3,1.9,4,3,3
2016/9/5 8:18,1.8,3,1.9,4,1.5,3
2016/9/5 8:19,1.7,3,1.8,4,2.1,5
2016/9/5 8:20,1.6,4,1.7,4,2.6,5
2016/9/5 8:21,1.5,4,1.6,4,1.9,5
2016/9/5 8:22,1.4,4,1.5,3,1.8,6
2016/9/5 8:23,1.3,4,1.4,3,1,7
2016/9/5 8:24,1.3,4,1.3,3,2,5
2016/9/5 8:25,1.2,5,1.3,3,1.8,5
2016/9/5 8:26,1.2,5,1.2,3,2.1,4
2016/9/5 8:27,1.1,5,1.2,3,2.1,5
2016/9/5 8:28,1.3,5,1.3,3,3.2,5
2016/9/5 8:29,1.3,5,1.3,3,2.4,5
2016/9/5 8:30,1.3,5,1.3,4,3.1,3
2016/9/5 8:31,1.5,5,1.5,4,4.1,6
2016/9/5 8:32,1.7,5,1.7,5,4.2,6
2016/9/5 8:33,1.8,5,1.8,5,2.7,3
2016/9/5 8:34,1.9,5,1.9,5,3.5,3
2016/9/5 8:35,2.1,4,2.1,4,4.2,5
2016/9/5 8:36,2.1,4,2.1,4,3.9,5
2016/9/5 8:37,2.3,4,2.3,4,4.1,6
2016/9/5 8:38,2.3,4,2.3,4,3.9,6
2016/9/5 8:39,2.3,4,2.3,4,2.9,5
2016/9/5 8:40,2.2,4,2.3,4,2.2,2
2016/9/5 8:41,2.1,4,2.2,4,2.6,7
2016/9/5 8:42,2.1,4,2.1,4,3.3,5
2016/9/5 8:43,2.2,5,2.2,4,3.7,5
2016/9/5 8:44,2.2,5,2.2,4,3.5,4
2016/9/5 8:45,2.1,5,2.2,4,2.9,5
2016/9/5 8:46,2.1,4,2.2,4,2.4,3
2016/9/5 8:47,2.1,4,2.1,4,3,3
2016/9/5 8:48,1.9,4,2.1,4,2,2
2016/9/5 8:49,1.9,4,1.9,4,3,2
2016/9/5 8:50,2,4,2,4,3.5,3
2016/9/5 8:51,2.1,4,2.1,5,3.3,3
2016/9/5 8:52,2,3,2.1,5,2.4,3
2016/9/5 8:53,2,3,2,5,3.2,4
2016/9/5 8:54,2,3,2,5,3.3,4
2016/9/5 8:55,1.9,3,2,5,3,3
2016/9/5 8:56,1.9,3,1.9,4,2.7,5
2016/9/5 8:57,1.9,3,1.9,4,2.5,3
2016/9/5 8:58,1.9,4,1.9,4,1.9,4
2016/9/5 8:59,1.9,4,1.9,4,2.5,3
2016/9/5 9:00,1.9,4,1.9,4,3.3,4
2016/9/5 9:01,1.8,4,1.9,4,2.5,4
2016/9/5 9:02,1.8,4,1.8,3,2.4,2
2016/9/5 9:03,1.7,4,1.8,3,1.4,4
2016/9/5 9:04,1.6,4,1.7,3,2.2,5
2016/9/5 9:05,1.6,4,1.6,3,2.7,3
2016/9/5 9:06,1.6,3,1.7,3,2.6,5
2016/9/5 9:07,1.7,3,1.7,3,2.9,3
2016/9/5 9:08,1.8,3,1.8,4,3.3,4
2016/9/5 9:09,1.8,3,1.8,4,2.2,3
2016/9/5 9:10,1.6,3,1.8,4,1.8,3
2016/9/5 9:11,1.6,3,1.6,4,2.2,4
2016/9/5 9:12,1.7,3,1.7,4,3.9,2
2016/9/5 9:13,1.7,3,1.7,3,2.5,3
2016/9/5 9:14,1.8,3,1.8,3,3,3
2016/9/5 9:15,1.8,3,1.8,3,4.4,3
2016/9/5 9:16,2,3,2,3,4.4,3
2016/9/5 9:17,2.1,3,2.1,3,3.8,4
2016/9/5 9:18,2,3,2.1,3,3.8,2
2016/9/5 9:19,2.1,3,2.1,3,2.5,6
2016/9/5 9:20,2.1,3,2.1,3,2.4,2
2016/9/5 9:21,2,3,2.1,3,3,4
2016/9/5 9:22,2,3,2,3,3.2,3
2016/9/5 9:23,2.2,3,2.2,3,3.8,3
2016/9/5 9:24,2.2,3,2.2,3,5,3
2016/9/5 9:25,2.3,3,2.3,3,3.7,3
2016/9/5 9:26,2.2,3,2.3,3,3.7,3
2016/9/5 9:27,2.1,3,2.2,3,3.2,3
2016/9/5 9:28,2.2,3,2.2,3,3.7,3
2016/9/5 9:29,2.1,3,2.2,3,2.6,5
2016/9/5 9:30,2.2,4,2.2,3,3.1,5
2016/9/5 9:31,2.4,4,2.4,4,3.6,4
2016/9/5 9:32,2.4,4,2.4,4,2.6,3
2016/9/5 9:33,2.2,4,2.4,4,2.6,5
2016/9/5 9:34,2.1,4,2.2,4,2.5,4
2016/9/5 9:35,2,4,2.1,4,2.2,3
2016/9/5 9:36,1.9,4,2,4,2.5,3
2016/9/5 9:37,1.9,4,1.9,4,2.4,4
2016/9/5 9:38,1.9,4,1.9,4,2.9,3
2016/9/5 9:39,1.9,4,1.9,4,3.5,2
2016/9/5 9:40,1.9,4,2,4,2.7,4
2016/9/5 9:41,1.9,4,1.9,4,2.4,4
2016/9/5 9:42,1.9,4,1.9,4,2.9,3
2016/9/5 9:43,1.9,3,1.9,4,3.1,3
2016/9/5 9:44,1.8,3,1.9,4,2,3
2016/9/5 9:45,1.8,3,1.8,4,1.9,3
2016/9/5 9:46,1.8,3,1.8,4,1.8,3
2016/9/5 9:47,1.8,4,1.8,4,2,5
2016/9/5 9:48,1.7,4,1.8,4,1.8,4
2016/9/5 9:49,1.6,4,1.7,4,1.9,5
2016/9/5 9:50,1.5,4,1.6,4,2.9,5
2016/9/5 9:51,1.6,4,1.6,4,3.2,4
2016/9/5 9:52,1.7,4,1.7,3,3.3,4
2016/9/5 9:53,1.7,4,1.7,3,3.7,3
2016/9/5 9:54,1.8,4,1.8,3,4.1,5
2016/9/5 9:55,1.9,4,1.9,4,3.2,4
2016/9/5 9:56,2,4,2,4,2.9,5
2016/9/5 9:57,2,4,2,4,2.7,4
2016/9/5 9:58,2.1,4,2.1,4,3.3,4
2016/9/5 9:59,2.2,4,2.2,4,3,3
2016/9/5 10:00,2.1,4,2.2,4,3.1,5
2016/9/5 10:01,2.2,4,2.2,4,3.1,4
2016/9/5 10:02,2.1,4,2.2,4,2.7,5
2016/9/5 10:03,2.1,4,2.1,4,3.9,3
2016/9/5 10:04,2.1,4,2.1,4,4.4,3
2016/9/5 10:05,2.1,4,2.1,4,3.3,4
2016/9/5 10:06,2.1,4,2.1,4,2.9,3
2016/9/5 10:07,2.2,4,2.2,4,3,3
2016/9/5 10:08,2.2,4,2.3,4,4.3,3
2016/9/5 10:09,2.3,3,2.3,4,3.6,3
2016/9/5 10:10,2.4,3,2.4,3,3.2,3
2016/9/5 10:11,2.4,3,2.4,3,3.7,3
2016/9/5 10:12,2.5,3,2.5,3,3.9,2
2016/9/5 10:13,2.6,3,2.6,3,3.7,2
2016/9/5 10:14,2.4,3,2.6,3,3.3,3
2016/9/5 10:15,2.4,3,2.5,3,2.5,3
2016/9/5 10:16,2.5,3,2.5,3,3.7,3
2016/9/5 10:17,2.5,3,2.5,3,3.7,4
2016/9/5 10:18,2.5,3,2.5,3,3.6,4
2016/9/5 10:19,2.4,3,2.5,3,3.3,3
2016/9/5 10:20,2.4,3,2.4,3,3.8,4
2016/9/5 10:21,2.5,3,2.5,3,4.1,3
2016/9/5 10:22,2.4,3,2.5,3,3.3,3
2016/9/5 10:23,2.3,3,2.4,3,2.2,1
2016/9/5 10:24,2.3,2,2.3,3,3.7,3
2016/9/5 10:25,2.4,3,2.4,3,3.8,3
2016/9/5 10:26,2.3,3,2.4,3,3.2,3
2016/9/5 10:27,2.1,3,2.3,3,1.6,2
2016/9/5 10:28,2,3,2.1,3,2.5,2
2016/9/5 10:29,1.9,3,2,3,2,3
2016/9/5 10:30,1.8,2,1.9,3,1.9,3
2016/9/5 10:31,1.6,2,1.8,3,2.1,2
2016/9/5 10:32,1.5,2,1.6,3,2.1,3
2016/9/5 10:33,1.5,2,1.5,3,2.2,3
2016/9/5 10:34,1.5,3,1.6,3,2.6,3
2016/9/5 10:35,1.5,3,1.5,3,3.5,4
2016/9/5 10:36,1.5,3,1.5,3,2.7,3
2016/9/5 10:37,1.7,3,1.7,3,3.1,3
2016/9/5 10:38,1.7,3,1.7,3,2.9,4
2016/9/5 10:39,1.7,3,1.7,3,1.9,3
2016/9/5 10:40,1.8,3,1.8,2,2.9,4
2016/9/5 10:41,1.8,3,1.8,3,2.9,3
2016/9/5 10:42,1.9,3,1.9,3,3,4
2016/9/5 10:43,2,3,2,3,3.7,3
2016/9/5 10:44,2,3,2,3,3,3
2016/9/5 10:45,2,3,2,3,2.5,2
2016/9/5 10:46,1.9,3,2,3,3,3
2016/9/5 10:47,1.9,3,1.9,3,3.1,3
2016/9/5 10:48,2,3,2,3,3.3,3
2016/9/5 10:49,2,3,2,3,2.7,3
2016/9/5 10:50,2,3,2,3,3,3
2016/9/5 10:51,2,3,2,3,2.7,4
2016/9/5 10:52,2,3,2,3,2.9,4
2016/9/5 10:53,1.8,3,2,3,1.9,3
2016/9/5 10:54,1.7,3,1.8,3,1.9,3
2016/9/5 10:55,1.9,3,1.9,3,4.5,4
2016/9/5 10:56,2,3,2,3,3.2,2
2016/9/5 10:57,1.9,3,2,3,2.9,3
2016/9/5 10:58,1.9,3,1.9,3,3.6,2
2016/9/5 10:59,1.9,2,1.9,3,2.6,2
2016/9/5 11:00,1.8,2,1.9,3,2.7,3
2016/9/5 11:01,1.8,2,1.8,3,2.4,3
2016/9/5 11:02,1.8,2,1.8,3,2.1,3
2016/9/5 11:03,1.8,3,1.8,3,2.4,4
2016/9/5 11:04,2,3,2,3,3.1,4
2016/9/5 11:05,1.8,3,2,3,3.2,3
2016/9/5 11:06,1.8,3,1.8,3,2.6,3
2016/9/5 11:07,1.9,3,1.9,3,3.3,3
2016/9/5 11:08,1.9,3,1.9,3,3.1,5
2016/9/5 11:09,1.8,3,1.9,3,2.6,5
2016/9/5 11:10,1.9,3,1.9,3,2.9,4
2016/9/5 11:11,2,4,2,3,2.6,3
2016/9/5 11:12,2,4,2.1,4,2.5,4
2016/9/5 11:13,2,3,2,4,2.5,2
2016/9/5 11:14,2,3,2,4,3.2,3
2016/9/5 11:15,2,3,2,4,2.9,3
2016/9/5 11:16,2,4,2,4,2.7,3
2016/9/5 11:17,2,3,2,4,2.5,3
2016/9/5 11:18,1.8,3,2,4,1.5,3
2016/9/5 11:19,1.8,3,1.8,4,1.9,4
2016/9/5 11:20,1.7,3,1.7,4,2.6,3
2016/9/5 11:21,1.8,3,1.8,4,4.2,3
2016/9/5 11:22,1.9,3,1.9,4,3.2,4
2016/9/5 11:23,1.9,3,1.9,3,3,4
2016/9/5 11:24,1.9,3,1.9,3,3.2,3
2016/9/5 11:25,1.9,3,1.9,3,3.2,3
2016/9/5 11:26,1.9,3,1.9,4,2.7,4
2016/9/5 11:27,1.9,3,1.9,3,3,4
2016/9/5 11:28,2.1,4,2.1,4,3.5,3
2016/9/5 11:29,2.2,4,2.2,4,3,5
2016/9/5 11:30,2.3,4,2.3,4,3.3,5
2016/9/5 11:31,2.2,4,2.3,4,4.4,5
2016/9/5 11:32,2.2,4,2.2,4,2.9,4
2016/9/5 11:33,2.1,4,2.2,4,2.5,5
2016/9/5 11:34,2.1,4,2.1,4,3.8,5
2016/9/5 11:35,2.2,4,2.2,4,3.7,5
2016/9/5 11:36,2.3,4,2.3,4,3,3
2016/9/5 11:37,2.2,4,2.3,4,2.7,3
2016/9/5 11:38,2.1,4,2.2,4,2.7,4
2016/9/5 11:39,2.2,4,2.2,4,3.3,3
2016/9/5 11:40,2.2,4,2.2,4,3.5,5
2016/9/5 11:41,2.2,4,2.2,4,3.5,4
2016/9/5 11:42,2.3,4,2.3,4,3.9,4
2016/9/5 11:43,2.4,4,2.4,4,3.3,4
2016/9/5 11:44,2.4,4,2.4,4,3.3,5
2016/9/5 11:45,2.2,4,2.4,4,2,4
2016/9/5 11:46,2.2,4,2.2,4,3.7,5
2016/9/5 11:47,2.3,4,2.3,4,3.3,4
2016/9/5 11:48,2.3,4,2.4,4,3.2,5
2016/9/5 11:49,2.2,4,2.3,4,2,4
2016/9/5 11:50,2.1,4,2.2,4,2.5,5
2016/9/5 11:51,2,4,2.1,4,2.2,5
2016/9/5 11:52,2,4,2,4,3.8,3
2016/9/5 11:53,2,4,2,4,4.3,3
2016/9/5 11:54,2,4,2,4,3.1,4
2016/9/5 11:55,2.2,4,2.2,4,4.4,3
2016/9/5 11:56,2.4,4,2.5,4,5.2,3
2016/9/5 11:57,2.4,4,2.5,4,4.2,1
2016/9/5 11:58,2.6,3,2.6,3,4.9,3
2016/9/5 11:59,2.7,3,2.7,3,3.5,3
2016/9/5 12:00,2.8,3,2.8,3,4.3,2
2016/9/5 12:01,2.8,3,2.8,3,2.5,4
2016/9/5 12:02,2.6,3,2.8,3,2.1,6
2016/9/5 12:03,2.4,3,2.6,3,1.6,5
2016/9/5 12:04,2.4,3,2.4,3,3.2,6
2016/9/5 12:05,2.2,3,2.4,3,2.7,5
2016/9/5 12:06,1.9,3,2.2,3,2,3
2016/9/5 12:07,1.8,4,1.9,3,2.5,4
2016/9/5 12:08,1.6,4,1.8,3,2.4,5
2016/9/5 12:09,1.5,4,1.6,3,2.4,4
2016/9/5 12:10,1.4,4,1.5,3,1.9,5
2016/9/5 12:11,1.4,4,1.4,3,2,5
2016/9/5 12:12,1.4,4,1.4,3,1.5,4